Wind_Speed
17 18 18 19 20 20 19 20 21 21 22 22 23 23 24 26 26 27 27 28 29 29 31 33 35 38 40 42 44 47 50 53 55 57 59 60 61 61 61 60 59 58 56 56
16 15 16 16 16 16 16 16 16 17 18 18 18 18 20 21 22 23 24 25 26 27 28 31 32 33 35 37 39 42 46 49 52 55 56 57 59 60 59 58 58 57 56 56
14 13 13 13 13 13 13 13 13 13 14 15 15 16 17 18 19 20 21 22 24 25 27 29 30 31 33 34 36 37 39 43 46 50 53 55 57 58 59 58 58 57 56 56
12 11 10 10 10 10 10 10 10 10 11 12 13 14 14 14 15 17 19 20 21 23 24 26 27 28 29 30 31 33 35 38 41 47 50 51 53 54 55 55 56 55 55 55
9 8 7 6 6 8 7 7 7 8 9 10 11 12 11 12 12 13 16 18 18 19 20 23 23 23 24 25 27 30 32 35 37 40 43 45 48 51 51 52 53 54 54 55
7 6 5 5 6 6 6 6 6 7 8 8 8 9 9 10 11 11 13 14 15 16 16 17 17 18 19 21 23 25 27 29 32 35 39 41 43 46 48 48 48 50 53 53
7 6 5 4 4 5 4 4 4 4 5 5 5 6 8 9 10 10 10 10 11 11 11 12 12 12 13 14 16 18 21 24 27 30 34 37 40 42 44 44 43 45 48 50
7 6 5 4 4 3 3 3 3 3 2 3 4 6 7 8 9 10 10 9 8 9 8 8 8 7 8 10 12 14 17 20 22 25 28 31 34 36 38 39 39 41 43 46
7 6 5 4 4 3 2 1 1 0 1 2 4 6 6 6 8 9 8 8 7 7 7 7 7 6 5 5 7 10 13 15 17 20 23 26 28 30 32 34 35 37 40 42
6 5 4 4 4 3 2 2 2 2 2 3 4 5 5 5 7 7 8 8 7 7 7 6 6 6 3 3 3 5 8 11 14 16 20 23 25 26 28 30 32 34 36 39
6 5 5 5 5 4 3 2 2 2 3 4 5 6 6 6 7 8 8 7 8 8 8 8 7 7 4 2 1 2 6 9 11 13 16 20 22 23 24 25 27 29 33 37
6 5 5 5 4 3 2 2 2 2 3 4 5 6 7 7 7 8 8 8 8 9 9 9 8 8 7 4 1 1 2 4 6 9 11 14 18 20 21 22 24 26 29 33
5 5 4 4 3 3 2 1 2 3 3 4 5 6 6 6 6 7 8 9 8 9 10 10 10 10 9 7 4 1 1 1 3 5 7 10 14 17 19 21 23 25 27 30
4 4 3 2 2 2 2 1 2 2 3 4 4 5 5 6 5 5 7 8 8 8 9 10 11 10 9 9 6 4 2 1 1 3 6 8 12 15 17 20 22 25 26 28
3 3 2 2 1 1 0 1 1 1 2 3 4 4 5 5 5 5 7 8 9 9 9 9 10 9 9 8 6 4 3 1 1 4 6 9 11 13 16 18 20 22 24 27
2 1 1 1 1 1 1 1 2 3 3 3 4 4 4 5 5 5 6 7 8 8 9 9 9 9 8 7 6 4 3 3 4 6 7 9 12 14 15 17 18 20 23 25
2 2 2 3 3 2 3 3 4 4 4 4 5 5 5 5 6 6 7 7 7 8 8 9 8 8 8 7 6 6 6 7 8 9 10 12 14 16 18 19 20 22 24 25
4 4 5 5 5 5 5 5 5 6 6 6 6 6 6 6 7 8 8 9 9 9 9 8 9 8 8 7 8 8 8 8 9 11 13 14 16 17 19 20 21 22 23 25
6 7 7 7 7 7 7 7 7 8 7 7 8 8 8 9 9 10 10 10 11 11 10 10 10 10 10 9 10 10 10 11 12 14 16 17 18 19 20 21 22 23 24 26
8 9 9 10 10 9 9 9 10 10 9 9 10 10 10 11 11 11 12 12 12 12 12 12 12 13 13 13 13 13 13 13 14 16 17 19 20 21 22 22 23 24 26 26
10 10 11 11 12 12 11 11 11 11 11 11 11 12 13 13 14 14 14 13 13 13 13 13 14 15 15 15 16 17 17 17 18 19 20 22 23 23 24 25 26 27 27 28
11 12 12 13 13 13 13 13 13 13 13 14 14 15 15 16 16 16 16 16 15 15 15 16 17 18 18 18 19 19 20 21 22 23 24 25 26 26 26 27 27 28 29 30
13 13 13 14 14 15 15 15 15 15 15 15 16 16 17 17 17 17 18 18 18 18 19 19 19 20 21 21 22 23 23 24 25 26 28 29 29 28 28 28 28 29 30 31
14 15 15 15 15 16 16 16 16 17 16 16 17 18 18 18 18 19 19 20 21 21 21 21 21 22 23 24 25 26 26 27 28 28 29 30 30 30 29 28 29 30 31 32
16 16 16 17 17 18 18 19 19 19 19 19 19 19 20 20 19 20 21 22 22 23 23 24 24 25 26 26 27 28 28 29 30 30 31 31 31 31 30 30 30 31 31 32
18 18 18 18 19 20 20 21 21 22 22 22 23 22 22 23 23 23 23 24 25 25 26 26 26 27 27 28 29 30 30 31 32 32 32 32 31 31 32 32 32 33 33 33
Wind_Direction
226 233 239 243 247 249 252 254 255 255 257 259 261 264 267 270 271 271 273 273 272 268 264 262 261 261 258 255 253 250 245 242 240 237 234 234 234 235 235 235 237 237 238 239
225 233 239 244 247 249 251 252 253 255 257 259 260 266 270 271 271 272 273 275 274 270 267 266 265 263 259 255 254 250 244 241 239 236 234 233 233 234 234 235 236 236 238 238
221 231 237 242 246 250 249 249 249 252 254 260 263 268 271 270 271 273 274 276 277 275 271 269 267 265 260 256 253 247 243 241 238 235 234 233 233 233 234 235 236 237 238 238
218 225 234 241 245 239 240 240 247 252 253 262 268 273 272 271 271 273 277 279 280 278 275 272 269 267 260 253 250 246 243 240 237 235 233 232 232 232 233 234 235 236 238 239
208 215 225 232 231 223 229 235 247 254 259 271 274 275 277 280 278 277 282 287 287 282 278 274 270 264 259 253 248 244 242 239 237 233 231 230 230 230 232 233 235 237 237 239
189 193 202 212 215 220 229 241 250 256 264 276 279 282 288 293 292 289 290 295 294 288 283 280 275 266 260 253 246 244 242 237 234 232 231 230 230 229 230 232 234 235 236 237
169 171 179 188 201 216 226 239 242 253 265 283 286 298 302 305 306 306 306 303 303 297 289 289 284 273 262 253 246 243 238 234 233 232 230 229 228 228 228 230 232 235 237 237
159 165 174 179 182 191 213 235 232 253 273 305 303 316 313 316 320 321 326 326 322 320 306 311 305 294 272 255 242 240 237 233 230 229 226 225 226 227 227 228 232 235 237 238
154 162 170 179 171 166 167 181 194 219 328 331 332 334 323 329 333 336 344 348 343 341 332 331 335 326 292 252 239 237 236 231 228 227 223 222 220 223 225 228 233 236 239 240
148 155 160 162 167 161 151 139 113 70 20 358 2 358 355 359 360 357 1 2 359 352 349 347 349 344 323 259 242 228 219 222 226 224 220 219 222 224 224 226 231 236 239 241
133 137 139 141 146 143 133 112 77 44 15 9 17 21 18 18 20 24 26 25 21 15 10 5 2 5 355 332 256 209 216 219 218 216 214 215 217 221 222 228 235 239 241 242
124 124 131 132 135 135 123 81 48 24 15 14 16 21 23 28 32 37 41 40 38 30 28 27 27 29 34 37 53 201 213 215 211 208 210 217 223 229 231 235 241 245 247 248
121 118 123 124 126 137 124 69 34 30 26 18 16 24 32 41 40 44 44 44 42 36 34 35 31 31 38 39 38 57 117 143 189 198 210 220 231 237 241 246 248 249 254 255
127 117 116 115 115 118 112 44 20 40 31 20 19 26 38 40 37 39 41 42 38 28 23 22 24 33 37 35 41 57 81 106 191 232 241 243 246 254 257 257 255 256 258 259
147 126 120 134 153 146 55 14 18 13 353 351 358 10 20 25 24 26 29 29 29 25 21 19 20 23 26 25 24 34 46 38 272 260 258 258 261 268 266 264 261 263 264 264
186 192 192 206 215 216 254 298 313 327 323 323 330 341 352 2 359 359 2 6 10 12 10 7 7 8 9 9 6 0 350 337 316 296 288 284 284 286 281 276 274 274 272 269
227 226 243 249 249 253 274 286 293 304 309 309 308 315 324 335 340 342 343 344 349 352 353 352 351 358 2 356 349 336 324 317 315 311 301 296 295 294 290 283 282 280 277 276
254 253 259 262 263 270 275 282 290 296 299 299 297 302 307 312 317 322 326 327 327 330 330 333 340 343 345 344 343 335 324 316 312 310 308 305 303 300 296 292 288 288 285 283
265 260 261 263 267 271 278 284 290 298 298 290 286 288 291 299 303 307 311 316 318 320 322 325 328 331 332 330 327 324 319 316 313 312 311 309 307 304 301 297 295 293 290 288
271 267 265 265 269 272 277 283 289 292 293 288 285 286 290 291 295 299 303 308 311 315 319 322 323 326 327 325 322 319 316 315 314 312 309 309 309 307 305 301 299 298 296 295
271 269 268 269 271 273 274 280 285 288 290 288 287 285 287 287 289 292 297 300 303 307 311 314 316 318 318 319 318 318 315 314 315 315 312 311 310 309 306 302 300 299 297 296
273 273 269 269 272 273 274 278 282 285 287 289 289 287 285 285 286 289 292 294 296 298 301 305 308 311 312 313 313 313 312 310 310 312 312 312 311 309 306 302 300 299 298 297
272 274 273 271 272 273 274 276 279 283 287 288 288 289 288 286 286 287 288 290 291 292 295 298 301 303 305 307 309 310 309 308 308 309 310 310 309 309 306 302 300 298 298 299
272 271 271 272 273 275 274 275 278 281 283 285 287 289 289 289 286 285 286 287 289 290 292 292 294 297 299 301 303 306 308 307 308 308 309 309 308 307 306 303 302 301 301 301
276 274 272 271 271 273 275 276 279 281 283 283 284 286 287 287 287 286 287 287 288 290 292 291 292 293 295 297 299 303 305 306 306 308 308 308 307 307 306 305 304 303 302 302
278 278 278 274 271 272 274 277 278 280 283 283 283 284 285 286 286 286 286 287 287 289 291 292 292 293 296 297 298 300 302 304 304 305 305 305 305 304 305 305 305 304 303 301
Height
5666 5670 5671 5673 5674 5676 5677 5678 5679 5680 5680 5681 5681 5681 5680 5678 5677 5675 5673 5672 5669 5668 5667 5666 5666 5666 5667 5668 5669 5671 5674 5679 5683 5689 5696 5703 5710 5716 5723 5729 5735 5742 5747 5752
5664 5666 5667 5669 5670 5671 5673 5674 5675 5675 5675 5676 5676 5676 5674 5673 5671 5669 5667 5665 5663 5661 5660 5658 5657 5656 5656 5656 5657 5659 5662 5666 5671 5677 5683 5690 5697 5703 5710 5717 5723 5729 5735 5741
5661 5664 5664 5665 5667 5668 5669 5670 5671 5672 5672 5672 5672 5672 5670 5668 5666 5664 5662 5659 5657 5655 5652 5650 5649 5647 5646 5646 5647 5648 5650 5655 5659 5665 5671 5677 5684 5691 5698 5705 5711 5717 5723 5729
5658 5660 5662 5663 5664 5665 5666 5667 5668 5668 5669 5668 5668 5667 5666 5663 5661 5659 5657 5654 5652 5648 5645 5643 5641 5639 5637 5637 5637 5639 5641 5644 5648 5653 5660 5666 5673 5680 5687 5693 5699 5705 5711 5717
5657 5658 5660 5661 5662 5663 5664 5665 5666 5666 5665 5665 5664 5663 5662 5659 5657 5655 5652 5649 5646 5643 5640 5637 5634 5631 5630 5629 5629 5630 5632 5635 5639 5643 5649 5655 5662 5669 5676 5682 5688 5693 5698 5704
5656 5657 5658 5659 5660 5661 5662 5663 5663 5663 5663 5663 5661 5659 5658 5655 5653 5650 5648 5645 5641 5638 5635 5631 5628 5625 5624 5623 5622 5623 5625 5627 5631 5635 5641 5646 5652 5658 5665 5671 5676 5682 5687 5692
5655 5657 5658 5658 5660 5660 5661 5662 5662 5661 5661 5660 5658 5657 5656 5652 5649 5646 5644 5641 5637 5634 5631 5627 5624 5621 5619 5618 5617 5618 5619 5622 5625 5628 5633 5638 5644 5649 5655 5661 5667 5671 5676 5681
5655 5657 5658 5658 5659 5659 5660 5660 5661 5660 5659 5658 5657 5655 5653 5650 5647 5644 5641 5638 5635 5632 5628 5625 5622 5618 5616 5614 5614 5614 5615 5617 5620 5623 5627 5631 5636 5642 5647 5653 5658 5662 5666 5671
5655 5657 5657 5658 5658 5659 5659 5659 5659 5659 5658 5657 5655 5654 5651 5648 5645 5642 5639 5636 5633 5630 5627 5624 5620 5617 5614 5612 5612 5611 5612 5614 5616 5619 5622 5625 5630 5635 5641 5646 5650 5654 5659 5663
5656 5657 5657 5657 5658 5658 5659 5658 5658 5658 5656 5655 5654 5652 5649 5646 5643 5641 5638 5636 5633 5630 5627 5624 5620 5617 5614 5612 5611 5610 5610 5612 5613 5615 5617 5621 5625 5630 5635 5639 5644 5648 5652 5655
5656 5657 5658 5658 5658 5658 5659 5659 5657 5657 5656 5654 5653 5653 5648 5645 5643 5640 5638 5635 5633 5630 5627 5624 5621 5617 5615 5612 5611 5610 5610 5610 5611 5613 5615 5618 5623 5627 5631 5635 5638 5642 5645 5647
5657 5658 5658 5658 5658 5658 5658 5658 5657 5657 5655 5654 5652 5654 5648 5645 5643 5641 5639 5636 5634 5631 5628 5625 5622 5618 5615 5613 5612 5611 5611 5611 5611 5613 5615 5618 5621 5624 5628 5630 5633 5636 5638 5640
5658 5659 5659 5659 5661 5659 5658 5658 5657 5656 5655 5654 5652 5654 5648 5646 5644 5642 5640 5637 5635 5632 5630 5627 5624 5620 5617 5615 5614 5613 5613 5613 5613 5614 5615 5617 5620 5622 5624 5626 5628 5630 5632 5633
5658 5659 5660 5660 5659 5658 5658 5658 5657 5656 5655 5654 5653 5651 5649 5647 5645 5643 5641 5639 5636 5634 5631 5628 5626 5623 5620 5618 5616 5615 5615 5615 5615 5615 5616 5618 5619 5620 5621 5622 5623 5624 5625 5625
5658 5659 5659 5659 5658 5658 5658 5658 5657 5656 5655 5654 5653 5651 5649 5647 5645 5644 5642 5640 5638 5635 5632 5630 5627 5625 5622 5620 5618 5617 5617 5616 5616 5616 5617 5617 5617 5617 5617 5617 5617 5618 5617 5617
5658 5659 5659 5659 5658 5658 5658 5657 5656 5655 5654 5653 5652 5651 5649 5647 5645 5644 5642 5640 5638 5635 5633 5630 5628 5626 5623 5622 5620 5619 5618 5618 5617 5616 5616 5615 5614 5614 5613 5612 5611 5611 5610 5609
5658 5658 5659 5659 5658 5658 5658 5657 5656 5655 5654 5653 5651 5651 5649 5647 5645 5644 5642 5640 5637 5635 5633 5630 5628 5626 5624 5622 5621 5619 5618 5617 5616 5615 5614 5613 5611 5610 5608 5607 5605 5604 5603 5601
5657 5657 5657 5657 5658 5657 5659 5655 5654 5654 5652 5651 5650 5649 5647 5646 5645 5643 5641 5639 5637 5634 5632 5630 5627 5625 5623 5622 5620 5618 5617 5616 5614 5613 5611 5610 5608 5606 5604 5601 5599 5597 5596 5594
5656 5656 5656 5656 5655 5655 5656 5654 5652 5652 5651 5649 5648 5647 5646 5644 5643 5641 5639 5637 5635 5632 5630 5628 5626 5624 5622 5620 5619 5617 5615 5613 5612 5610 5608 5606 5604 5601 5599 5596 5593 5591 5588 5586
5654 5654 5654 5653 5653 5653 5654 5652 5650 5650 5648 5647 5645 5644 5643 5642 5641 5640 5637 5635 5632 5630 5628 5626 5624 5622 5620 5618 5616 5614 5613 5611 5609 5607 5604 5602 5599 5596 5593 5590 5587 5584 5581 5579
5651 5651 5651 5650 5649 5650 5650 5648 5647 5648 5647 5644 5642 5641 5640 5639 5638 5636 5633 5631 5629 5628 5626 5624 5622 5620 5618 5616 5613 5611 5609 5607 5605 5602 5599 5596 5593 5590 5586 5583 5580 5577 5574 5571
5648 5648 5647 5646 5646 5648 5645 5644 5644 5644 5641 5640 5638 5637 5636 5634 5633 5631 5629 5627 5626 5624 5622 5620 5618 5616 5614 5612 5610 5607 5605 5602 5599 5596 5593 5590 5586 5583 5579 5576 5572 5569 5566 5563
5645 5645 5643 5643 5644 5642 5640 5640 5639 5638 5637 5635 5634 5633 5631 5630 5628 5626 5625 5623 5621 5620 5618 5616 5614 5612 5609 5607 5605 5602 5599 5596 5593 5590 5586 5582 5578 5575 5571 5568 5564 5561 5558 5555
5641 5639 5639 5638 5638 5637 5636 5635 5634 5633 5632 5631 5629 5628 5626 5624 5623 5621 5620 5618 5616 5614 5612 5610 5608 5606 5604 5601 5599 5596 5593 5589 5586 5583 5579 5574 5570 5566 5563 5560 5556 5553 5549 5545
5635 5634 5633 5633 5633 5632 5631 5630 5629 5628 5626 5625 5624 5622 5620 5619 5617 5615 5613 5612 5610 5608 5606 5604 5601 5599 5597 5594 5592 5588 5585 5582 5579 5575 5571 5566 5562 5558 5555 5551 5548 5544 5540 5536
5629 5629 5628 5628 5627 5626 5625 5624 5623 5622 5620 5619 5617 5616 5614 5612 5610 5608 5607 5605 5603 5601 5599 5596 5594 5591 5589 5586 5583 5580 5577 5573 5570 5566 5562 5558 5554 5550 5546 5542 5538 5534 5530 5526